• In Germany
  • List of Countries
  • For 7 days
  • Water Temperature
  • Satellite Maps
  • Weather Map
  • Weather Widgets
  • user-avatar
    Login

    Hourly Weather Abovyan

    Today, 26 September, Tuesday

    Time Temperature Precipitation Wind Pressure Humidity
    00:00 +17°C° 0 mm 2 mps 673 mmHg 66%
    01:00 +17°C° 0 mm 2 mps 673 mmHg 68%
    02:00 +16°C° 0 mm 2 mps 673 mmHg 69%
    03:00 +16°C° 0 mm 2 mps 673 mmHg 71%
    04:00 +16°C° 0 mm 2 mps 673 mmHg 72%
    05:00 +15°C° 0 mm 1 mps 673 mmHg 73%
    06:00 +15°C° 0 mm 1 mps 672 mmHg 74%
    07:00 +18°C° 0 mm 1 mps 673 mmHg 64%
    08:00 +20°C° 0 mm 1 mps 673 mmHg 54%
    09:00 +22°C° 0 mm 1 mps 674 mmHg 44%
    10:00 +24°C° 0 mm 1 mps 674 mmHg 38%
    11:00 +25°C° 0 mm 2 mps 673 mmHg 32%
    12:00 +26°C° 0 mm 2 mps 673 mmHg 27%
    13:00 +27°C° 0 mm 2 mps 673 mmHg 26%
    14:00 +27°C° 0 mm 2 mps 673 mmHg 25%
    15:00 +27°C° 0 mm 2 mps 672 mmHg 23%
    16:00 +25°C° 0 mm 2 mps 672 mmHg 28%
    17:00 +24°C° 0 mm 2 mps 672 mmHg 32%
    18:00 +21°C° 0 mm 2 mps 671 mmHg 37%
    19:00 +20°C° 0.1 mm 2 mps 671 mmHg 43%
    20:00 +20°C° 0.1 mm 2 mps 672 mmHg 48%
    21:00 +19°C° 0.1 mm 2 mps 672 mmHg 54%
    22:00 +19°C° 0.1 mm 2 mps 672 mmHg 57%
    23:00 +19°C° 0.1 mm 2 mps 672 mmHg 60%

    Tomorrow, 27 September, Wednesday

    Time Temperature Precipitation Wind Pressure Humidity
    00:00 +19°C° 0.1 mm 2 mps 672 mmHg 62%
    01:00 +18°C° 0 mm 2 mps 672 mmHg 64%
    02:00 +18°C° 0 mm 2 mps 672 mmHg 67%
    03:00 +18°C° 0 mm 1 mps 671 mmHg 69%
    04:00 +18°C° 0.2 mm 1 mps 671 mmHg 69%
    05:00 +18°C° 0.2 mm 1 mps 671 mmHg 69%
    06:00 +16°C° 0.2 mm 1 mps 671 mmHg 69%
    07:00 +19°C° 0.3 mm 1 mps 671 mmHg 61%
    08:00 +21°C° 0.3 mm 1 mps 672 mmHg 52%
    09:00 +22°C° 0.3 mm 1 mps 672 mmHg 44%
    10:00 +24°C° 0.3 mm 2 mps 672 mmHg 41%
    11:00 +25°C° 0.3 mm 2 mps 672 mmHg 38%
    12:00 +26°C° 0.3 mm 3 mps 672 mmHg 35%
    13:00 +26°C° 0.5 mm 3 mps 672 mmHg 35%
    14:00 +26°C° 0.5 mm 3 mps 671 mmHg 35%
    15:00 +26°C° 0.5 mm 3 mps 671 mmHg 35%
    16:00 +25°C° 0.7 mm 3 mps 671 mmHg 42%
    17:00 +22°C° 0.7 mm 3 mps 671 mmHg 49%
    18:00 +20°C° 0.7 mm 3 mps 670 mmHg 56%
    19:00 +19°C° 0.5 mm 3 mps 671 mmHg 60%
    20:00 +18°C° 0.5 mm 2 mps 671 mmHg 65%
    21:00 +18°C° 0.5 mm 2 mps 672 mmHg 70%
    22:00 +17°C° 0.3 mm 2 mps 671 mmHg 71%
    23:00 +17°C° 0.3 mm 2 mps 671 mmHg 72%

    Day after tomorrow, 28 September, Thursday

    Time Temperature Precipitation Wind Pressure Humidity
    00:00 +17°C° 0.3 mm 2 mps 671 mmHg 73%
    01:00 +16°C° 0.2 mm 2 mps 671 mmHg 74%
    02:00 +16°C° 0.2 mm 2 mps 671 mmHg 75%
    03:00 +15°C° 0.2 mm 1 mps 671 mmHg 76%
    04:00 +15°C° 0.2 mm 1 mps 671 mmHg 77%
    05:00 +15°C° 0.2 mm 1 mps 671 mmHg 77%
    06:00 +15°C° 0.2 mm 1 mps 671 mmHg 77%
    07:00 +16°C° 0.2 mm 1 mps 671 mmHg 70%
    08:00 +19°C° 0.2 mm 1 mps 672 mmHg 62%
    09:00 +20°C° 0.2 mm 1 mps 672 mmHg 55%
    10:00 +20°C° 0.2 mm 2 mps 672 mmHg 51%
    11:00 +23°C° 0.2 mm 2 mps 672 mmHg 48%
    12:00 +24°C° 0.2 mm 2 mps 673 mmHg 44%
    13:00 +24°C° 0.3 mm 2 mps 672 mmHg 43%
    14:00 +24°C° 0.3 mm 2 mps 672 mmHg 42%
    15:00 +24°C° 0.3 mm 2 mps 672 mmHg 42%
    16:00 +23°C° 0.3 mm 2 mps 672 mmHg 48%
    17:00 +20°C° 0.3 mm 3 mps 672 mmHg 54%
    18:00 +19°C° 0.3 mm 4 mps 672 mmHg 60%
    19:00 +18°C° 0.1 mm 3 mps 673 mmHg 64%
    20:00 +17°C° 0.1 mm 3 mps 673 mmHg 67%
    21:00 +16°C° 0.1 mm 3 mps 673 mmHg 71%
    22:00 +16°C° 0.1 mm 3 mps 673 mmHg 72%
    23:00 +14°C° 0.1 mm 3 mps 673 mmHg 73%

    29 September, Friday

    Time Temperature Precipitation Wind Pressure Humidity
    00:00 +15°C° 0.1 mm 2 mps 673 mmHg 75%
    01:00 +15°C° 0 mm 2 mps 673 mmHg 75%
    02:00 +14°C° 0 mm 2 mps 673 mmHg 76%
    03:00 +14°C° 0 mm 2 mps 673 mmHg 76%
    04:00 +14°C° 0 mm 2 mps 673 mmHg 77%
    05:00 +13°C° 0 mm 2 mps 673 mmHg 78%
    06:00 +13°C° 0 mm 2 mps 673 mmHg 78%
    07:00 +15°C° 0 mm 2 mps 673 mmHg 70%
    08:00 +17°C° 0 mm 2 mps 673 mmHg 62%
    09:00 +18°C° 0 mm 2 mps 674 mmHg 54%
    10:00 +20°C° 0 mm 3 mps 674 mmHg 50%
    11:00 +21°C° 0 mm 3 mps 673 mmHg 46%
    12:00 +22°C° 0 mm 3 mps 673 mmHg 42%
    13:00 +22°C° 0 mm 3 mps 673 mmHg 42%
    14:00 +24°C° 0 mm 3 mps 673 mmHg 42%
    15:00 +24°C° 0 mm 3 mps 672 mmHg 42%
    16:00 +21°C° 0.3 mm 3 mps 672 mmHg 47%
    17:00 +20°C° 0.3 mm 3 mps 671 mmHg 53%
    18:00 +18°C° 0.3 mm 2 mps 671 mmHg 59%
    19:00 +18°C° 0.2 mm 3 mps 671 mmHg 62%
    20:00 +17°C° 0.2 mm 3 mps 671 mmHg 65%
    21:00 +16°C° 0.2 mm 3 mps 671 mmHg 69%
    22:00 +16°C° 0.1 mm 3 mps 671 mmHg 70%
    23:00 +14°C° 0.1 mm 3 mps 671 mmHg 71%

    30 September, Saturday

    Time Temperature Precipitation Wind Pressure Humidity
    00:00 +15°C° 0.1 mm 2 mps 671 mmHg 72%
    01:00 +15°C° 0.1 mm 2 mps 671 mmHg 71%
    02:00 +15°C° 0.1 mm 2 mps 670 mmHg 70%
    03:00 +15°C° 0.1 mm 2 mps 670 mmHg 70%
    04:00 +15°C° 0.3 mm 2 mps 670 mmHg 69%
    05:00 +15°C° 0.3 mm 2 mps 670 mmHg 69%
    06:00 +15°C° 0.3 mm 2 mps 670 mmHg 68%
    07:00 +16°C° 0.2 mm 2 mps 670 mmHg 63%
    08:00 +17°C° 0.2 mm 2 mps 670 mmHg 57%
    09:00 +19°C° 0.2 mm 2 mps 670 mmHg 52%
    10:00 +19°C° 0.4 mm 2 mps 670 mmHg 50%
    11:00 +20°C° 0.4 mm 2 mps 670 mmHg 48%
    12:00 +21°C° 0.4 mm 2 mps 670 mmHg 45%
    13:00 +22°C° 0.4 mm 1 mps 669 mmHg 44%
    14:00 +23°C° 0.4 mm 1 mps 669 mmHg 44%
    15:00 +23°C° 0.4 mm 1 mps 668 mmHg 43%
    16:00 +22°C° 0.7 mm 1 mps 668 mmHg 49%
    17:00 +19°C° 0.7 mm 2 mps 668 mmHg 55%
    18:00 +18°C° 0.7 mm 2 mps 667 mmHg 61%
    19:00 +18°C° 0.5 mm 1 mps 668 mmHg 64%
    20:00 +16°C° 0.5 mm 1 mps 668 mmHg 67%
    21:00 +16°C° 0.5 mm 1 mps 668 mmHg 71%
    22:00 +15°C° 0.1 mm 1 mps 668 mmHg 69%
    23:00 +15°C° 0.1 mm 1 mps 669 mmHg 68%

    1 October, Sunday

    Time Temperature Precipitation Wind Pressure Humidity
    00:00 +15°C° 0.1 mm 1 mps 669 mmHg 67%
    01:00 +15°C° 0.1 mm 1 mps 669 mmHg 67%
    02:00 +15°C° 0.1 mm 1 mps 669 mmHg 66%
    03:00 +14°C° 0.1 mm 1 mps 669 mmHg 65%
    04:00 +14°C° 0 mm 2 mps 669 mmHg 66%
    05:00 +14°C° 0 mm 2 mps 669 mmHg 66%
    06:00 +14°C° 0 mm 2 mps 670 mmHg 66%
    07:00 +16°C° 0 mm 2 mps 670 mmHg 60%
    08:00 +18°C° 0 mm 2 mps 671 mmHg 53%
    09:00 +20°C° 0 mm 3 mps 671 mmHg 46%
    10:00 +21°C° 0 mm 3 mps 671 mmHg 42%
    11:00 +22°C° 0 mm 3 mps 671 mmHg 38%
    12:00 +23°C° 0 mm 4 mps 671 mmHg 34%
    13:00 +23°C° 0.1 mm 4 mps 670 mmHg 34%
    14:00 +25°C° 0.1 mm 4 mps 670 mmHg 33%
    15:00 +25°C° 0.1 mm 4 mps 670 mmHg 33%
    16:00 +22°C° 0.1 mm 4 mps 670 mmHg 37%
    17:00 +21°C° 0.1 mm 3 mps 669 mmHg 41%
    18:00 +19°C° 0.1 mm 2 mps 669 mmHg 45%
    19:00 +19°C° 0.2 mm 2 mps 669 mmHg 47%
    20:00 +18°C° 0.2 mm 2 mps 670 mmHg 48%
    21:00 +18°C° 0.2 mm 2 mps 670 mmHg 50%
    22:00 +17°C° 0.2 mm 2 mps 670 mmHg 51%
    23:00 +17°C° 0.2 mm 2 mps 670 mmHg 51%
    Show more